Opa Locka, FL

11:09 AM EDT on March 24, 2017 (GMT -0400)
Opa Locka

Weather History for KOPF - September, 2013

Change the Weather History Date:

Tuesday, September 24, 2013

  Actual Average Record
Temperature  
Mean Temperature 84 °F -  
Max Temperature 91 °F 88 °F 94 °F (1957)
Min Temperature 78 °F 74 °F 68 °F (1968)
Cooling Degree Days 19    
Growing Degree Days 34 (Base 50)    
Moisture  
Dew Point 75 °F    
Average Humidity 79    
Maximum Humidity 94    
Minimum Humidity 61    
Precipitation  
Precipitation 0.02 in - - ()
Sea Level Pressure  
Sea Level Pressure 29.94 in    
Wind  
Wind Speed 5 mph (SW)    
Max Wind Speed 15 mph    
Max Gust Speed 18 mph    
Visibility 10 miles    
Events Rain    
Averages and records for this station are not official NWS values.
T = Trace of Precipitation, MM = Missing Value Source: NWS Daily Summary

Daily Weather History Graph

Daily Weather History Graph

Search for Another Location

Airport or City:

Trip Planner

Search our weather history database for the weather conditions in past years. The results will help you decide how hot, cold, wet, or windy it might be!

Date:

Astronomy

Sep. 24, 2013 Rise Set
Actual Time 7:10 AM EDT 7:15 PM EDT
Civil Twilight 6:47 AM EDT 7:38 PM EDT
Nautical Twilight 6:20 AM EDT 8:04 PM EDT
Astronomical Twilight 5:53 AM EDT 8:31 PM EDT
Moon 11:00 PM EDT 11:54 AM EDT
Length of Visible Light 12h 50m
Length of Day
12h 04m
Waning Gibbous, 73% of the Moon is Illuminated
Sep 24
Waning Gibbous
Sep 26
Last Quarter
Oct 4
New
Oct 11
First Quarter
Oct 18
Full

Hourly Weather History & Observations

Time (EDT) Temp. Heat Index Dew Point Humidity Pressure Visibility Wind Dir Wind Speed Gust Speed Precip Events Conditions
12:53 AM 82.0 °F 91.6 °F 79.0 °F 90% 29.98 in 10.0 mi South 3.5 mph - N/A   Mostly Cloudy
1:53 AM 81.0 °F 87.3 °F 75.9 °F 85% 29.97 in 10.0 mi SSW 3.5 mph - N/A   Scattered Clouds
2:53 AM 80.1 °F 85.1 °F 75.0 °F 85% 29.97 in 10.0 mi North - - N/A   Clear
3:53 AM 79.0 °F - 75.9 °F 90% 29.96 in 10.0 mi East 3.5 mph - N/A   Scattered Clouds
4:53 AM 79.0 °F - 75.9 °F 90% 29.94 in 10.0 mi Calm Calm - N/A   Partly Cloudy
5:07 AM 78.8 °F - 75.2 °F 89% 29.94 in 10.0 mi Calm Calm - N/A   Mostly Cloudy
5:53 AM 80.1 °F 85.8 °F 77.0 °F 90% 29.95 in 10.0 mi Calm Calm - N/A   Overcast
6:48 AM 78.8 °F - 77.0 °F 94% 29.95 in 10.0 mi Calm Calm - N/A   Scattered Clouds
6:53 AM 79.0 °F - 77.0 °F 94% 29.95 in 10.0 mi Calm Calm - N/A   Partly Cloudy
7:53 AM 81.0 °F 88.6 °F 78.1 °F 91% 29.96 in 10.0 mi South 5.8 mph - N/A   Clear
8:53 AM 84.9 °F 97.5 °F 79.0 °F 82% 29.97 in 10.0 mi SSW 11.5 mph - N/A   Clear
9:53 AM 87.1 °F 98.8 °F 77.0 °F 72% 29.99 in 10.0 mi SW 11.5 mph - N/A   Partly Cloudy
10:53 AM 88.0 °F 98.5 °F 75.9 °F 67% 29.98 in 10.0 mi South 11.5 mph - N/A   Scattered Clouds
11:53 AM 89.1 °F 99.1 °F 75.0 °F 63% 29.97 in 10.0 mi SW 10.4 mph - N/A   Scattered Clouds
12:53 PM 89.1 °F 98.0 °F 73.9 °F 61% 29.95 in 10.0 mi WSW 11.5 mph - N/A   Mostly Cloudy
1:53 PM 90.0 °F 101.3 °F 75.9 °F 63% 29.92 in 10.0 mi South 10.4 mph - N/A   Mostly Cloudy
2:53 PM 90.0 °F 101.3 °F 75.9 °F 63% 29.91 in 10.0 mi SSW 8.1 mph - N/A   Mostly Cloudy
3:53 PM 89.1 °F 98.0 °F 73.9 °F 61% 29.90 in 10.0 mi WSW 12.7 mph 18.4 mph N/A   Mostly Cloudy
4:53 PM 84.9 °F 92.1 °F 73.9 °F 69% 29.91 in 10.0 mi West 15.0 mph - 0.00 in Rain Light Rain
5:53 PM 82.9 °F 89.4 °F 73.9 °F 74% 29.91 in 10.0 mi WSW 9.2 mph - 0.00 in   Partly Cloudy
6:53 PM 82.0 °F 87.9 °F 73.9 °F 76% 29.92 in 10.0 mi WNW 15.0 mph - N/A   Mostly Cloudy
7:53 PM 80.1 °F 84.2 °F 73.0 °F 79% 29.92 in 10.0 mi West 4.6 mph - 0.00 in   Clear
8:53 PM 80.1 °F 84.2 °F 73.0 °F 79% 29.92 in 10.0 mi Calm Calm - N/A   Mostly Cloudy
9:53 PM 79.0 °F - 73.9 °F 84% 29.94 in 10.0 mi West 3.5 mph - 0.01 in   Mostly Cloudy
10:53 PM 79.0 °F - 73.9 °F 84% 29.93 in 10.0 mi Calm Calm - 0.00 in   Clear
11:53 PM 79.0 °F - 73.9 °F 84% 29.92 in 10.0 mi Calm Calm - 0.01 in   Clear